| time (UTC) | temp C | wind direction | speed KPH | gust KPH | rain 1hr cm | rain 24hr cm | rain mn cm | humidity % | barometer mb |
| 20260509061206 | 16 | 185 | 8.0 | 20.9 | 0.00 | 0.00 | 0.00 | 81 | 1007.8 |
| 20260509060245 | 16 | 183 | 8.0 | 22.5 | 0.00 | 0.00 | 0.00 | 81 | 1007.9 |
| 20260509055406 | 16 | 192 | 8.0 | 20.9 | 0.00 | 0.00 | 0.00 | 81 | 1007.9 |
| 20260509054445 | 17 | 188 | 6.4 | 24.1 | 0.00 | 0.00 | 0.00 | 80 | 1007.5 |
| 20260509053545 | 17 | 200 | 6.4 | 16.1 | 0.00 | 0.00 | 0.00 | 79 | 1007.7 |
| 20260509052645 | 17 | 203 | 4.8 | 16.1 | 0.00 | 0.00 | 0.00 | 77 | 1007.7 |
| 20260509051806 | 17 | 200 | 3.2 | 11.3 | 0.00 | 0.00 | 0.00 | 76 | 1007.8 |
| 20260509050845 | 17 | 208 | 1.6 | 8.0 | 0.00 | 0.00 | 0.00 | 75 | 1007.6 |
| 20260509050006 | 17 | 218 | 1.6 | 6.4 | 0.00 | 0.00 | 0.00 | 75 | 1007.4 |
| 20260509045045 | 17 | 188 | 1.6 | 4.8 | 0.00 | 0.00 | 0.00 | 74 | 1007.4 |
| 20260509044145 | 17 | 194 | 1.6 | 6.4 | 0.00 | 0.00 | 0.00 | 74 | 1007.4 |
| 20260509043245 | 17 | 198 | 0.0 | 6.4 | 0.00 | 0.00 | 0.00 | 73 | 1007.6 |
| 20260509042345 | 17 | 189 | 0.0 | 3.2 | 0.00 | 0.00 | 0.00 | 72 | 1007.7 |
| 20260509041445 | 17 | 144 | 0.0 | 3.2 | 0.00 | 0.00 | 0.00 | 72 | 1007.7 |
| 20260509040545 | 17 | 126 | 0.0 | 3.2 | 0.00 | 0.00 | 0.00 | 72 | 1007.7 |
| 20260509035645 | 17 | 119 | 0.0 | 1.6 | 0.00 | 0.00 | 0.00 | 71 | 1007.6 |
| 20260509034745 | 17 | 119 | 1.6 | 3.2 | 0.00 | 0.00 | 0.00 | 71 | 1007.6 |
| 20260509033845 | 17 | 131 | 1.6 | 8.0 | 0.00 | 0.00 | 0.00 | 71 | 1007.6 |
| 20260509032945 | 17 | 167 | 0.0 | 4.8 | 0.00 | 0.00 | 0.00 | 70 | 1007.7 |
| 20260509032045 | 17 | 169 | 1.6 | 3.2 | 0.00 | 0.00 | 0.00 | 70 | 1007.9 |
| 20260509031144 | 17 | 143 | 1.6 | 6.4 | 0.00 | 0.00 | 0.00 | 71 | 1007.7 |
| 20260509030244 | 17 | 165 | 1.6 | 8.0 | 0.00 | 0.00 | 0.00 | 71 | 1008.0 |
| 20260509025344 | 17 | 140 | 3.2 | 8.0 | 0.00 | 0.00 | 0.00 | 71 | 1008.0 |
| 20260509024444 | 17 | 156 | 1.6 | 11.3 | 0.00 | 0.00 | 0.00 | 71 | 1008.0 |
| 20260509023544 | 17 | 176 | 1.6 | 6.4 | 0.00 | 0.00 | 0.00 | 71 | 1008.1 |
| 20260509022644 | 17 | 177 | 1.6 | 8.0 | 0.00 | 0.00 | 0.00 | 71 | 1008.2 |
| 20260509021805 | 17 | 205 | 3.2 | 8.0 | 0.00 | 0.00 | 0.00 | 70 | 1008.2 |
| 20260509020844 | 17 | 183 | 3.2 | 11.3 | 0.00 | 0.00 | 0.00 | 70 | 1008.1 |
| 20260509015944 | 17 | 163 | 1.6 | 11.3 | 0.00 | 0.00 | 0.00 | 70 | 1008.1 |
| 20260509015044 | 17 | 168 | 3.2 | 8.0 | 0.00 | 0.00 | 0.00 | 70 | 1008.3 |
| 20260509014205 | 17 | 151 | 1.6 | 9.7 | 0.00 | 0.00 | 0.00 | 70 | 1008.2 |
| 20260509013244 | 17 | 169 | 0.0 | 3.2 | 0.00 | 0.00 | 0.00 | 70 | 1008.2 |
| 20260509012344 | 17 | 172 | 1.6 | 8.0 | 0.00 | 0.00 | 0.00 | 70 | 1008.4 |
| 20260509011444 | 17 | 194 | 1.6 | 4.8 | 0.00 | 0.00 | 0.00 | 70 | 1008.5 |
| 20260509010544 | 17 | 207 | 1.6 | 4.8 | 0.00 | 0.00 | 0.00 | 70 | 1008.7 |
| 20260509005644 | 17 | 166 | 1.6 | 8.0 | 0.00 | 0.00 | 0.00 | 70 | 1008.6 |
| 20260509004744 | 17 | 230 | 0.0 | 6.4 | 0.00 | 0.00 | 0.00 | 70 | 1008.7 |
| 20260509003845 | 17 | 247 | 1.6 | 6.4 | 0.00 | 0.00 | 0.00 | 71 | 1008.7 |
| 20260509002944 | 17 | 234 | 1.6 | 6.4 | 0.00 | 0.00 | 0.00 | 71 | 1008.9 |
| 20260509002044 | 17 | 198 | 1.6 | 4.8 | 0.00 | 0.00 | 0.00 | 71 | 1008.9 |
| 20260509001205 | 17 | 190 | 0.0 | 8.0 | 0.00 | 0.00 | 0.00 | 71 | 1009.1 |
| 20260509000244 | 17 | 186 | 0.0 | 4.8 | 0.00 | 0.00 | 0.00 | 71 | 1009.0 |
| 20260508235344 | 17 | 248 | 0.0 | 4.8 | 0.00 | 0.00 | 0.00 | 71 | 1009.2 |
| 20260508234444 | 17 | 268 | 1.6 | 4.8 | 0.00 | 0.00 | 0.00 | 70 | 1009.4 |
| 20260508233605 | 17 | 262 | 1.6 | 6.4 | 0.00 | 0.00 | 0.00 | 70 | 1009.6 |
| 20260508232644 | 17 | 236 | 1.6 | 6.4 | 0.00 | 0.00 | 0.00 | 70 | 1009.6 |
| 20260508231744 | 17 | 244 | 3.2 | 6.4 | 0.00 | 0.00 | 0.00 | 69 | 1009.7 |
| 20260508230844 | 17 | 234 | 1.6 | 8.0 | 0.00 | 0.00 | 0.00 | 69 | 1009.9 |
| 20260508225944 | 17 | 232 | 3.2 | 6.4 | 0.00 | 0.00 | 0.00 | 69 | 1009.8 |
| 20260508225044 | 17 | 252 | 3.2 | 6.4 | 0.00 | 0.00 | 0.00 | 68 | 1009.9 |
| 20260508224144 | 17 | 242 | 3.2 | 12.9 | 0.00 | 0.00 | 0.00 | 68 | 1009.9 |
| 20260508223244 | 17 | 232 | 3.2 | 6.4 | 0.00 | 0.00 | 0.00 | 68 | 1009.9 |
| 20260508222344 | 17 | 246 | 3.2 | 8.0 | 0.00 | 0.00 | 0.00 | 67 | 1010.0 |
| 20260508221444 | 17 | 270 | 4.8 | 14.5 | 0.00 | 0.00 | 0.00 | 67 | 1010.0 |
| 20260508220544 | 17 | 260 | 4.8 | 11.3 | 0.00 | 0.00 | 0.00 | 66 | 1009.9 |
| 20260508215644 | 17 | 264 | 4.8 | 11.3 | 0.00 | 0.00 | 0.00 | 66 | 1009.9 |
| 20260508214744 | 17 | 272 | 6.4 | 12.9 | 0.00 | 0.00 | 0.00 | 65 | 1009.9 |
| 20260508213844 | 18 | 270 | 8.0 | 16.1 | 0.00 | 0.00 | 0.00 | 65 | 1010.0 |
| 20260508212943 | 18 | 272 | 8.0 | 17.7 | 0.00 | 0.00 | 0.00 | 65 | 1010.0 |
| 20260508212044 | 18 | 273 | 6.4 | 16.1 | 0.00 | 0.00 | 0.00 | 64 | 1009.9 |
| 20260508211144 | 18 | 268 | 4.8 | 12.9 | 0.00 | 0.00 | 0.00 | 63 | 1009.7 |
| 20260508210244 | 18 | 259 | 4.8 | 11.3 | 0.00 | 0.00 | 0.00 | 63 | 1009.8 |
| 20260508205343 | 18 | 274 | 4.8 | 14.5 | 0.00 | 0.00 | 0.00 | 63 | 1009.7 |
| 20260508204443 | 18 | 260 | 6.4 | 16.1 | 0.00 | 0.00 | 0.00 | 61 | 1009.5 |
| 20260508203543 | 18 | 264 | 8.0 | 16.1 | 0.00 | 0.00 | 0.00 | 61 | 1009.5 |
| 20260508202643 | 18 | 249 | 9.7 | 17.7 | 0.00 | 0.00 | 0.00 | 60 | 1009.4 |
| 20260508201743 | 18 | 246 | 9.7 | 22.5 | 0.00 | 0.00 | 0.00 | 59 | 1009.3 |
| 20260508200843 | 18 | 245 | 11.3 | 22.5 | 0.00 | 0.00 | 0.00 | 57 | 1009.3 |
| 20260508195943 | 18 | 249 | 11.3 | 20.9 | 0.00 | 0.00 | 0.00 | 56 | 1009.1 |
| 20260508195044 | 19 | 257 | 11.3 | 20.9 | 0.00 | 0.00 | 0.00 | 55 | 1009.1 |
| 20260508194143 | 19 | 239 | 11.3 | 22.5 | 0.00 | 0.00 | 0.00 | 53 | 1009.0 |
| 20260508193243 | 20 | 243 | 11.3 | 24.1 | 0.00 | 0.00 | 0.00 | 52 | 1009.0 |
| 20260508192343 | 20 | 241 | 12.9 | 29.0 | 0.00 | 0.00 | 0.00 | 51 | 1008.8 |
| 20260508191444 | 20 | 243 | 12.9 | 25.7 | 0.00 | 0.00 | 0.00 | 52 | 1008.7 |
| 20260508190543 | 20 | 243 | 11.3 | 24.1 | 0.00 | 0.00 | 0.00 | 53 | 1008.6 |
| 20260508185643 | 21 | 243 | 11.3 | 24.1 | 0.00 | 0.00 | 0.00 | 54 | 1008.4 |
| 20260508184743 | 21 | 246 | 11.3 | 24.1 | 0.00 | 0.00 | 0.00 | 55 | 1008.4 |
| 20260508183844 | 21 | 247 | 11.3 | 20.9 | 0.00 | 0.00 | 0.00 | 54 | 1008.4 |
| 20260508182943 | 21 | 249 | 12.9 | 32.2 | 0.00 | 0.00 | 0.00 | 54 | 1008.2 |
| 20260508182104 | 21 | 243 | 11.3 | 32.2 | 0.00 | 0.00 | 0.00 | 52 | 1008.3 |
| 20260508181143 | 22 | 249 | 11.3 | 20.9 | 0.00 | 0.00 | 0.00 | 52 | 1008.1 |
| 20260508180305 | 22 | 251 | 8.0 | 20.9 | 0.00 | 0.00 | 0.00 | 52 | 1008.0 |
| 20260508175343 | 22 | 252 | 8.0 | 20.9 | 0.00 | 0.00 | 0.00 | 51 | 1008.0 |
| 20260508174443 | 22 | 266 | 8.0 | 19.3 | 0.00 | 0.00 | 0.00 | 50 | 1007.9 |
| 20260508173543 | 22 | 258 | 9.7 | 19.3 | 0.00 | 0.00 | 0.00 | 49 | 1007.8 |
| 20260508172643 | 23 | 231 | 8.0 | 16.1 | 0.00 | 0.00 | 0.00 | 49 | 1007.8 |
| 20260508171743 | 23 | 229 | 8.0 | 19.3 | 0.00 | 0.00 | 0.00 | 48 | 1007.9 |
| 20260508170843 | 23 | 253 | 8.0 | 17.7 | 0.00 | 0.00 | 0.00 | 48 | 1007.9 |
| 20260508165943 | 23 | 252 | 6.4 | 17.7 | 0.00 | 0.00 | 0.00 | 47 | 1007.9 |
| 20260508165043 | 23 | 242 | 8.0 | 17.7 | 0.00 | 0.00 | 0.00 | 47 | 1007.9 |
| 20260508164143 | 23 | 237 | 8.0 | 19.3 | 0.00 | 0.00 | 0.00 | 46 | 1008.0 |
| 20260508163243 | 23 | 237 | 6.4 | 16.1 | 0.00 | 0.00 | 0.00 | 46 | 1008.0 |
| 20260508162343 | 23 | 225 | 11.3 | 19.3 | 0.00 | 0.00 | 0.00 | 46 | 1008.1 |
| 20260508161443 | 23 | 247 | 9.7 | 24.1 | 0.00 | 0.00 | 0.00 | 46 | 1008.1 |
| 20260508160543 | 24 | 239 | 6.4 | 24.1 | 0.00 | 0.00 | 0.00 | 45 | 1008.2 |
| 20260508155643 | 23 | 229 | 6.4 | 14.5 | 0.00 | 0.00 | 0.00 | 45 | 1008.3 |
| 20260508154804 | 24 | 212 | 4.8 | 14.5 | 0.00 | 0.00 | 0.00 | 44 | 1008.1 |
| 20260508153843 | 24 | 182 | 4.8 | 12.9 | 0.00 | 0.00 | 0.00 | 44 | 1008.1 |
| 20260508152943 | 23 | 175 | 4.8 | 14.5 | 0.00 | 0.00 | 0.00 | 44 | 1008.1 |
| 20260508152043 | 23 | 245 | 3.2 | 14.5 | 0.00 | 0.00 | 0.00 | 44 | 1008.3 |
| 20260508151143 | 23 | 121 | 4.8 | 11.3 | 0.00 | 0.00 | 0.00 | 45 | 1008.4 |
| 20260508150243 | 23 | 141 | 4.8 | 14.5 | 0.00 | 0.00 | 0.00 | 45 | 1008.7 |
| 20260508145342 | 23 | 162 | 6.4 | 12.9 | 0.00 | 0.00 | 0.00 | 45 | 1008.9 |
| 20260508144443 | 23 | 209 | 4.8 | 16.1 | 0.00 | 0.00 | 0.00 | 44 | 1009.1 |
| 20260508143542 | 23 | 181 | 3.2 | 16.1 | 0.00 | 0.00 | 0.00 | 45 | 1009.2 |
| 20260508142642 | 23 | 203 | 4.8 | 12.9 | 0.00 | 0.00 | 0.00 | 46 | 1009.4 |
| 20260508141742 | 22 | 259 | 4.8 | 11.3 | 0.00 | 0.00 | 0.00 | 46 | 1009.4 |
| 20260508140842 | 22 | 222 | 6.4 | 19.3 | 0.00 | 0.00 | 0.00 | 46 | 1009.5 |
| 20260508135942 | 22 | 206 | 3.2 | 19.3 | 0.00 | 0.00 | 0.00 | 46 | 1009.7 |
| 20260508135042 | 22 | 227 | 3.2 | 11.3 | 0.00 | 0.00 | 0.00 | 47 | 1009.9 |
| 20260508134142 | 22 | 229 | 4.8 | 14.5 | 0.00 | 0.00 | 0.00 | 47 | 1010.0 |
| 20260508133242 | 22 | 223 | 4.8 | 14.5 | 0.00 | 0.00 | 0.00 | 47 | 1010.0 |
| 20260508132342 | 22 | 261 | 6.4 | 14.5 | 0.00 | 0.00 | 0.00 | 47 | 1010.2 |
| 20260508131503 | 22 | 253 | 4.8 | 19.3 | 0.00 | 0.00 | 0.00 | 46 | 1010.3 |
| 20260508130542 | 22 | 228 | 6.4 | 16.1 | 0.00 | 0.00 | 0.00 | 48 | 1010.2 |
| 20260508125703 | 22 | 214 | 6.4 | 14.5 | 0.00 | 0.00 | 0.00 | 47 | 1010.4 |
| 20260508124742 | 22 | 185 | 9.7 | 16.1 | 0.00 | 0.00 | 0.00 | 48 | 1010.6 |
| 20260508123903 | 22 | 188 | 9.7 | 17.7 | 0.00 | 0.00 | 0.00 | 47 | 1010.5 |
| 20260508123004 | 22 | 236 | 8.0 | 20.9 | 0.00 | 0.00 | 0.00 | 47 | 1010.6 |
| 20260508122042 | 22 | 253 | 6.4 | 17.7 | 0.00 | 0.00 | 0.00 | 48 | 1010.6 |
| 20260508121203 | 21 | 253 | 6.4 | 16.1 | 0.00 | 0.00 | 0.00 | 50 | 1010.8 |
| 20260508120242 | 21 | 189 | 6.4 | 14.5 | 0.00 | 0.00 | 0.00 | 51 | 1011.0 |
| 20260508115342 | 21 | 219 | 8.0 | 14.5 | 0.00 | 0.00 | 0.00 | 52 | 1011.0 |
| 20260508114442 | 21 | 220 | 6.4 | 17.7 | 0.00 | 0.00 | 0.00 | 50 | 1011.0 |
| 20260508113542 | 21 | 188 | 6.4 | 14.5 | 0.00 | 0.00 | 0.00 | 52 | 1011.1 |
| 20260508112642 | 21 | 196 | 4.8 | 16.1 | 0.00 | 0.00 | 0.00 | 51 | 1011.0 |
| 20260508111742 | 21 | 216 | 4.8 | 14.5 | 0.00 | 0.00 | 0.00 | 50 | 1011.2 |
| 20260508110842 | 20 | 237 | 6.4 | 17.7 | 0.00 | 0.00 | 0.00 | 52 | 1011.2 |
| 20260508105942 | 20 | 255 | 6.4 | 20.9 | 0.00 | 0.00 | 0.00 | 51 | 1011.2 |
| 20260508105042 | 20 | 233 | 6.4 | 14.5 | 0.00 | 0.00 | 0.00 | 51 | 1011.2 |
| 20260508104203 | 20 | 221 | 6.4 | 16.1 | 0.00 | 0.00 | 0.00 | 54 | 1011.2 |
| 20260508103242 | 20 | 192 | 4.8 | 14.5 | 0.00 | 0.00 | 0.00 | 53 | 1011.2 |
| 20260508102342 | 20 | 191 | 6.4 | 16.1 | 0.00 | 0.00 | 0.00 | 53 | 1011.3 |
| 20260508101441 | 20 | 226 | 6.4 | 19.3 | 0.00 | 0.00 | 0.00 | 56 | 1011.5 |
| 20260508100542 | 20 | 198 | 4.8 | 17.7 | 0.00 | 0.00 | 0.00 | 54 | 1011.4 |
| 20260508095642 | 19 | 217 | 4.8 | 12.9 | 0.00 | 0.00 | 0.00 | 58 | 1011.5 |
| 20260508094741 | 19 | 235 | 6.4 | 17.7 | 0.00 | 0.00 | 0.00 | 57 | 1011.5 |
| 20260508093842 | 19 | 220 | 6.4 | 14.5 | 0.00 | 0.00 | 0.00 | 59 | 1011.7 |
| 20260508093003 | 18 | 245 | 8.0 | 19.3 | 0.00 | 0.00 | 0.00 | 61 | 1011.8 |
| 20260508092042 | 18 | 238 | 6.4 | 24.1 | 0.00 | 0.00 | 0.00 | 61 | 1011.9 |
| 20260508091142 | 18 | 234 | 8.0 | 17.7 | 0.00 | 0.00 | 0.00 | 62 | 1011.7 |
| 20260508090241 | 18 | 248 | 8.0 | 20.9 | 0.00 | 0.00 | 0.00 | 64 | 1011.6 |
| 20260508085341 | 18 | 260 | 3.2 | 16.1 | 0.00 | 0.00 | 0.00 | 66 | 1011.6 |
| 20260508084441 | 18 | 220 | 3.2 | 8.0 | 0.00 | 0.00 | 0.00 | 69 | 1011.7 |
| 20260508083541 | 17 | 195 | 4.8 | 14.5 | 0.00 | 0.00 | 0.00 | 70 | 1011.7 |
| 20260508082641 | 17 | 227 | 3.2 | 14.5 | 0.00 | 0.00 | 0.00 | 71 | 1011.8 |
| 20260508081741 | 17 | 239 | 3.2 | 14.5 | 0.00 | 0.00 | 0.00 | 71 | 1011.8 |
| 20260508080841 | 17 | 225 | 3.2 | 14.5 | 0.00 | 0.00 | 0.00 | 72 | 1011.6 |
| 20260508075941 | 16 | 199 | 1.6 | 12.9 | 0.00 | 0.00 | 0.00 | 73 | 1011.6 |
| 20260508075041 | 16 | 230 | 1.6 | 11.3 | 0.00 | 0.00 | 0.00 | 73 | 1011.5 |
| 20260508074142 | 16 | 201 | 3.2 | 8.0 | 0.00 | 0.00 | 0.00 | 74 | 1011.4 |
| 20260508073302 | 16 | 199 | 3.2 | 8.0 | 0.00 | 0.00 | 0.00 | 74 | 1011.3 |
| 20260508072341 | 16 | 199 | 4.8 | 14.5 | 0.00 | 0.00 | 0.00 | 75 | 1011.2 |
| 20260508071441 | 16 | 212 | 3.2 | 12.9 | 0.00 | 0.00 | 0.00 | 75 | 1011.2 |
| 20260508070541 | 16 | 216 | 3.2 | 9.7 | 0.00 | 0.00 | 0.00 | 75 | 1011.2 |
| 20260508065641 | 15 | 210 | 1.6 | 9.7 | 0.00 | 0.00 | 0.00 | 76 | 1011.2 |
| 20260508064741 | 15 | 199 | 1.6 | 9.7 | 0.00 | 0.00 | 0.00 | 76 | 1011.1 |
| 20260508063841 | 15 | 220 | 1.6 | 8.0 | 0.00 | 0.00 | 0.00 | 77 | 1011.1 |
| 20260508062941 | 15 | 206 | 1.6 | 8.0 | 0.00 | 0.00 | 0.00 | 77 | 1011.1 |
| 20260508062041 | 15 | 189 | 1.6 | 6.4 | 0.00 | 0.00 | 0.00 | 78 | 1011.0 |